Wind_Speed
22 22 21 20 18 17 17 17 14 14 14 14 12 10 10 10 10 10 10 11 12 12 13 13 13 13 13 13 14 14 15 17 18 19 19 19 20 21 21 21 20 19
23 22 21 19 18 17 16 15 14 14 14 13 12 11 11 10 10 10 11 12 12 13 14 13 12 12 12 12 13 14 16 17 18 19 19 19 19 20 21 22 21 21
23 23 21 20 19 18 16 15 15 15 13 13 12 12 11 11 10 10 11 11 12 13 13 13 13 13 14 14 13 14 15 16 17 17 18 20 20 21 22 22 23 23
24 23 22 21 19 18 17 16 16 16 15 14 12 11 10 10 10 10 11 11 11 12 12 12 12 13 14 14 13 13 15 17 17 17 18 20 21 22 22 23 24 24
25 24 22 21 19 18 18 18 18 17 16 13 11 10 10 10 10 11 12 12 11 11 12 12 13 13 13 13 14 15 17 17 17 17 18 19 20 21 22 22 22 24
26 25 23 22 21 20 19 19 19 17 14 12 11 11 11 11 12 12 12 12 12 12 14 14 14 14 14 14 15 16 16 16 16 16 18 20 21 21 22 22 22 23
27 26 25 23 23 22 20 19 18 16 13 12 12 12 12 12 12 11 11 11 12 13 15 15 15 15 15 15 16 16 17 18 19 19 19 20 21 21 21 22 23 23
28 26 25 24 24 23 21 19 17 15 13 12 12 13 12 12 12 12 12 14 15 16 15 15 15 15 14 14 15 16 18 19 20 20 20 20 21 22 22 22 22 24
28 26 25 24 23 22 21 19 17 14 13 13 13 12 12 12 12 12 13 14 16 16 15 15 15 15 15 15 15 17 18 19 20 21 22 22 22 23 23 23 23 25
28 26 25 24 23 22 20 18 16 14 13 12 12 12 12 12 12 13 13 14 14 15 16 16 17 17 17 18 18 19 20 20 21 22 22 23 24 24 24 23 24 24
28 27 26 25 23 21 19 17 15 13 13 13 12 12 12 13 13 14 14 14 14 15 15 15 15 16 17 18 19 19 20 21 22 23 23 23 24 25 25 24 24 24
28 27 26 25 23 21 19 16 14 14 14 13 13 13 13 14 14 14 14 14 15 15 15 16 16 17 18 19 19 20 21 22 22 22 23 23 24 25 26 25 25 25
29 28 26 24 23 20 18 16 15 15 14 14 14 13 14 14 14 14 14 15 16 16 17 17 17 17 18 20 21 22 23 24 24 24 24 24 25 25 26 27 27 27
29 27 25 23 21 20 18 17 16 15 15 15 14 14 15 15 14 15 14 14 15 15 15 15 16 17 18 19 21 22 22 23 24 25 25 25 25 25 25 26 26 26
28 26 24 22 21 19 18 17 16 16 15 15 15 15 16 15 15 15 15 15 15 15 15 15 16 18 19 20 21 22 22 23 23 24 24 25 26 26 26 26 26 26
27 26 24 22 21 19 18 17 16 16 16 16 16 16 15 14 13 13 14 15 14 15 16 17 18 20 21 22 23 23 24 24 25 24 24 24 25 26 27 28 28 30
27 25 24 22 21 19 18 17 16 16 17 17 16 15 13 12 12 13 14 13 13 14 16 17 18 20 21 22 24 25 26 27 28 28 27 26 26 26 27 28 28 30
27 25 23 22 20 18 17 17 17 17 16 16 14 11 11 12 13 13 11 11 13 15 16 17 19 20 22 23 25 26 27 28 30 31 31 30 29 28 29 29 29 30
25 24 22 20 18 17 17 17 17 16 15 13 11 11 12 13 12 11 10 12 14 15 17 19 20 22 23 24 26 27 27 28 29 31 32 32 31 31 31 30 30 30
22 21 20 18 17 16 17 16 15 14 12 11 11 12 12 12 10 10 11 13 14 16 18 19 20 22 23 23 24 25 25 26 27 28 30 30 30 30 31 32 32 32
21 19 17 16 15 15 15 14 13 12 10 11 11 10 8 7 8 9 11 13 15 17 19 21 22 22 23 23 23 23 24 24 26 27 28 29 30 30 31 32 32 32
19 17 15 14 13 13 13 12 11 11 10 8 7 5 5 6 8 10 13 15 17 18 20 22 23 23 23 24 25 26 27 27 28 28 29 29 30 31 31 32 32 33
17 15 13 12 12 12 11 9 8 7 5 3 4 5 6 8 11 13 15 17 18 20 22 23 25 26 27 28 28 28 28 28 28 29 29 30 31 32 32 33 34 34
16 13 11 10 9 8 6 4 3 2 2 4 6 7 8 9 12 14 15 17 19 22 23 25 27 28 28 28 28 28 28 28 29 29 29 30 32 32 33 34 35 35
16 13 10 8 5 2 2 1 2 3 4 6 7 8 9 10 12 14 16 18 20 22 23 25 27 28 28 28 28 29 29 29 30 30 30 31 32 33 34 35 35 35
14 12 9 6 4 2 2 4 6 6 7 8 10 9 9 11 14 16 18 19 20 21 23 25 27 28 28 28 29 29 29 30 31 31 31 31 32 33 34 34 33 34
Wind_Direction
207 206 207 205 202 200 199 200 204 203 202 203 202 202 205 211 222 234 245 255 260 263 268 276 279 280 282 284 287 289 288 286 285 289 292 293 291 289 289 289 290 293
209 209 210 208 202 201 205 205 202 202 205 208 209 210 213 218 227 236 245 253 260 268 277 282 283 282 282 283 284 287 289 291 290 289 290 292 295 293 291 290 288 289
209 210 211 211 206 202 205 207 205 207 210 210 214 219 223 229 238 245 250 256 263 271 278 283 284 284 284 283 282 282 284 290 293 293 291 288 291 293 292 291 289 287
209 211 212 213 211 207 206 208 210 213 215 217 221 227 234 242 249 251 257 263 268 273 277 282 287 290 292 290 286 283 282 284 287 291 293 289 288 290 292 294 292 288
208 209 210 210 209 208 209 211 214 217 221 224 226 230 237 242 250 258 267 271 269 270 272 278 284 287 291 293 290 290 289 286 285 288 292 291 289 288 290 294 294 292
207 207 207 208 207 206 210 213 216 220 224 224 225 232 239 248 261 271 272 269 266 270 276 282 284 282 284 289 291 294 294 292 292 294 293 292 292 290 290 290 291 292
207 208 207 207 207 208 211 214 217 220 222 223 229 238 249 261 273 276 270 266 270 278 285 287 286 284 283 283 284 287 291 293 295 298 295 291 291 292 291 290 291 291
206 207 207 208 208 211 214 215 217 218 219 226 236 246 257 267 272 272 269 270 274 281 287 289 290 291 288 284 283 286 289 292 295 297 296 293 292 291 290 290 290 290
205 205 205 207 208 210 213 214 216 218 224 234 244 253 261 268 270 273 275 277 280 284 285 286 289 291 292 291 292 294 295 295 295 294 293 292 291 290 290 290 290 290
202 202 202 204 206 208 210 212 216 222 231 240 248 256 263 266 269 275 282 285 289 291 290 290 291 291 293 293 294 295 295 295 295 292 290 289 288 288 288 288 288 289
199 199 201 202 203 205 207 210 217 224 231 238 246 253 257 263 268 274 279 285 291 296 297 299 300 300 299 296 295 296 295 294 293 290 287 286 286 287 286 286 286 286
196 197 198 199 202 204 207 211 216 222 227 235 241 246 253 260 266 270 276 283 290 294 298 303 306 307 305 302 299 297 295 293 292 291 289 287 285 285 285 285 284 284
194 195 197 199 202 204 207 211 215 221 227 231 237 245 253 255 260 269 277 284 289 293 298 303 306 306 305 304 301 298 295 292 290 290 291 289 287 286 284 283 283 282
192 193 195 198 202 205 208 211 215 220 226 232 239 244 247 253 264 274 280 285 290 295 298 301 305 307 307 307 305 302 298 294 290 288 288 287 286 286 284 284 282 281
190 191 194 196 199 203 206 209 213 219 226 233 237 240 248 262 272 274 277 281 285 289 292 297 301 303 304 305 306 305 302 298 295 292 289 287 286 285 284 283 282 282
188 190 193 195 198 200 202 207 214 222 228 231 236 248 261 269 272 273 275 277 280 286 291 297 300 299 299 299 298 300 301 302 301 299 296 293 290 287 285 282 281 280
186 189 192 194 196 197 201 211 220 224 229 235 244 256 263 265 273 276 274 275 284 295 300 301 301 300 298 296 293 294 296 298 299 299 298 296 293 290 287 285 283 281
184 186 187 189 191 198 208 216 220 223 230 238 244 253 264 274 279 275 273 286 299 304 305 304 304 303 300 297 295 293 293 292 291 292 293 292 291 289 287 286 285 283
179 181 183 187 195 205 212 212 216 226 232 238 250 270 278 275 271 271 285 303 309 310 309 308 307 304 301 298 296 295 294 291 288 287 288 288 288 288 286 285 284 283
175 179 183 191 198 203 207 212 221 229 235 250 271 280 275 268 272 290 307 313 313 313 312 310 309 306 303 301 299 298 296 292 288 287 287 287 286 286 285 284 282 281
174 177 181 188 196 202 211 220 226 234 248 269 277 274 270 280 300 314 320 321 319 317 313 310 310 308 306 304 302 302 300 297 295 294 292 290 288 286 284 283 281 279
170 174 179 189 200 210 220 228 236 249 261 268 272 276 290 308 317 320 321 321 320 319 316 313 311 310 308 307 305 305 304 301 298 296 294 291 289 288 286 284 282 279
162 168 180 198 210 218 228 237 246 254 259 266 287 300 307 314 319 321 323 322 319 318 315 313 310 308 306 305 305 305 304 301 299 297 295 292 290 289 287 285 282 279
162 173 188 203 211 217 224 231 246 263 295 309 304 300 304 313 317 319 320 320 319 318 314 309 305 303 302 301 301 301 300 299 299 298 295 293 291 290 287 286 284 281
168 179 187 191 191 196 209 257 320 324 317 304 291 284 289 302 311 314 314 316 317 316 312 306 301 299 299 297 296 296 296 296 298 298 296 294 292 290 288 287 285 283
167 178 183 186 190 207 268 303 308 304 293 279 267 268 284 302 312 310 307 308 311 312 309 304 300 299 298 296 293 292 291 291 293 294 293 291 290 289 289 287 285 283
Height
806 806 807 808 809 810 811 812 812 813 814 814 815 816 816 817 817 818 818 818 818 818 819 819 819 819 819 818 818 818 817 816 816 815 815 815 814 814 814 814 814 813
804 805 806 807 808 809 809 810 811 812 812 813 814 814 815 815 816 816 817 817 817 817 817 817 817 817 818 818 818 817 817 816 815 815 814 813 813 812 812 811 811 811
802 803 804 805 806 807 808 809 810 810 811 811 812 813 813 814 814 815 815 816 816 816 816 816 816 816 816 816 816 816 815 815 815 814 813 812 812 811 810 809 809 809
799 800 802 803 804 805 806 807 808 808 809 810 810 811 812 812 813 813 814 814 814 814 814 815 815 814 814 814 814 814 814 814 813 813 812 811 811 810 809 808 807 807
797 798 800 801 802 804 804 805 806 806 807 808 809 810 810 811 811 811 812 812 812 813 813 813 813 813 813 813 812 812 812 812 812 812 811 810 810 809 808 807 806 805
795 796 798 799 800 802 802 803 804 805 806 807 807 808 809 809 809 810 810 810 810 811 811 811 811 811 811 811 811 810 810 809 809 810 809 808 808 807 807 806 805 804
793 794 796 797 798 800 800 801 802 803 804 805 806 806 807 807 808 808 808 808 808 808 808 809 809 809 809 809 808 808 808 808 807 807 807 806 806 806 805 805 804 803
790 792 793 795 796 798 799 800 801 802 803 804 804 805 805 805 806 806 806 806 806 806 806 806 807 806 807 807 806 806 806 805 805 805 805 804 804 803 803 803 802 801
788 790 791 793 794 796 797 798 799 800 801 802 802 803 803 804 804 804 804 804 804 804 804 804 805 805 805 805 804 804 803 803 803 803 803 802 802 801 801 801 800 799
786 787 789 791 793 794 795 797 798 799 800 800 801 801 801 802 802 802 802 802 802 802 802 802 803 802 803 803 802 802 802 801 801 801 801 800 800 799 799 799 798 797
783 785 787 789 791 792 794 795 797 798 798 799 799 799 800 800 800 800 801 801 801 801 801 801 800 800 800 800 800 800 799 799 799 799 798 798 797 797 796 796 796 795
781 783 785 787 789 791 793 794 795 796 797 797 797 798 798 798 798 799 799 799 799 799 799 799 799 799 798 798 798 798 797 797 797 796 796 795 795 794 794 794 793 793
779 781 783 786 788 790 791 792 793 794 795 795 796 796 796 797 797 797 797 797 797 797 797 797 797 797 797 796 796 795 795 795 794 794 793 793 792 791 791 791 790 790
777 779 782 784 787 788 790 791 792 793 793 794 794 794 794 795 795 795 795 796 795 795 795 795 795 795 795 795 794 793 793 792 791 791 790 790 789 788 788 787 787 786
776 778 781 783 785 787 789 790 790 791 792 792 792 792 793 793 793 794 794 794 794 793 793 793 793 793 793 793 792 792 791 790 789 789 788 787 786 785 785 784 784 783
775 777 780 782 784 786 787 788 789 790 790 790 790 791 791 792 792 792 792 792 792 791 791 791 791 791 791 791 791 790 789 788 787 786 785 784 783 782 781 781 780 780
773 776 779 781 783 785 786 787 788 788 788 789 789 790 790 790 790 790 790 790 790 789 789 789 789 789 789 789 789 788 787 786 784 783 782 781 780 779 778 777 777 776
772 775 778 780 782 784 785 786 787 787 787 788 788 788 789 789 789 789 788 788 788 788 788 787 787 787 786 786 786 785 785 783 782 780 779 778 777 776 775 774 773 772
771 774 777 779 781 783 784 785 785 786 786 787 787 787 788 787 787 787 787 787 786 786 786 785 785 784 784 783 783 782 781 780 778 777 775 774 773 772 771 770 769 769
771 774 777 779 780 782 783 783 784 784 785 785 786 786 786 786 786 785 785 785 785 784 784 783 782 782 781 781 780 779 778 776 775 773 771 770 769 768 767 766 765 765
771 774 777 778 779 780 781 782 783 783 783 784 785 785 785 785 785 784 784 784 783 782 781 780 780 779 778 778 777 776 775 773 771 770 768 766 765 764 763 762 761 760
770 774 776 778 779 779 780 781 782 782 782 783 784 784 784 784 783 783 782 782 781 780 779 778 777 776 776 775 774 773 771 769 767 765 764 762 760 759 758 757 756 755
770 773 775 777 778 778 779 780 780 781 781 782 783 783 782 782 782 781 781 780 779 778 777 775 774 773 773 771 770 769 768 766 764 761 759 757 755 755 753 751 751 750
769 772 774 776 777 777 778 779 779 780 780 780 781 781 781 781 780 780 779 778 777 776 774 773 771 770 769 768 767 766 764 762 760 757 755 753 751 749 748 746 744 744
769 771 773 775 776 776 777 777 778 778 779 779 779 780 780 779 778 777 776 775 774 773 771 770 767 766 765 764 762 762 760 759 757 754 751 749 747 744 742 740 738 737
768 770 771 773 775 775 776 776 777 777 778 778 778 778 778 777 776 775 773 772 771 769 768 766 764 762 761 760 758 757 756 755 753 751 748 745 742 739 736 734 732 731